Location: Oulou
(10.7667°N, 12.5167°W)
Time: 10:43:33
(UTC+00:00)

Cosmos 1975 Rocket - Pass Details

Date: 20 September 2019
Orbit: 603 x 634 km, 82.5° (Epoch: 22 October)

Event Time Altitude Azimuth Distance (km) Brightness Sun altitude
Rises 19:11:33 0° 346° (NNW) 2,903 6.7 -6.7°
Reaches altitude 10° 19:13:51 10° 341° (NNW) 1,992 6.0 -7.3°
Maximum altitude 19:18:05 47° 267° (W) 823 4.3 -8.3°
Drops below altitude 10° 19:22:17 10° 193° (SSW) 1,974 5.8 -9.3°
Sets 19:24:33 0° 187° (S) 2,874 6.5 -9.9°
